Location: *
(50.2903°S, 172.5375°W)
Time: 08:48:09
(UTC+00:00)

STARLINK 1016 - Pass Details

Date: 17 November 2019
Orbit: 348 x 351 km, 53.0° (Epoch: 07 December)

Event Time Altitude Azimuth Distance (km) Brightness Sun altitude
Rises 12:06:26 0° 253° (WSW) 2,200 6.8 -19.8°
Reaches altitude 10° 12:08:29 10° 249° (WSW) 1,349 5.7 -19.7°
Maximum altitude 12:11:27 60° 167° (SSE) 418 3.2 -19.6°
Drops below altitude 10° 12:14:25 10° 85° (E) 1,342 5.7 -19.5°
Sets 12:16:27 0° 81° (E) 2,186 6.8 -19.4°
